Temp
103 94 81 81 80 80 81 81 81 80 80 80 80 80 79 79 79 80 80 80 80 80 81 81 80 80 80 80 80 80 80 80 80 80 80 80 81 81 81 81 82 86 80
105 95 80 80 80 80 80 81 80 80 79 80 80 80 79 79 79 79 80 79 80 80 80 80 80 80 81 81 80 80 79 79 79 80 81 80 80 80 81 81 80 83 80
104 94 88 80 80 80 80 80 80 79 79 79 80 79 79 79 79 79 79 79 80 81 81 81 81 81 81 81 80 80 79 79 79 80 81 90 89 81 81 81 80 80 79
102 94 92 80 80 80 79 79 79 79 79 79 79 79 79 79 79 79 79 79 80 81 81 81 81 81 80 80 80 80 80 80 80 81 88 95 94 81 81 80 80 79 79
102 97 93 80 79 79 79 79 79 79 79 79 79 79 79 79 79 79 79 79 80 81 81 81 81 80 80 79 79 79 79 79 80 83 93 93 94 83 81 81 81 80 79
105 100 86 79 79 79 79 79 79 79 79 79 79 79 79 79 78 78 79 79 80 81 81 81 80 80 79 79 79 79 79 79 79 91 93 89 90 80 81 81 81 80 79
106 103 91 79 79 79 79 79 79 79 79 79 79 79 79 79 78 78 78 79 80 80 81 80 79 79 79 79 78 78 78 79 86 94 94 91 88 80 81 80 80 79 79
105 102 94 81 79 79 79 79 78 78 78 78 79 78 78 78 78 78 78 79 79 80 80 80 79 78 78 78 78 77 78 78 89 92 93 93 78 80 80 80 79 79 79
106 102 94 90 84 79 79 78 78 78 78 78 78 78 78 78 78 78 78 78 79 79 79 79 78 78 77 77 77 77 77 78 85 92 94 93 77 79 80 80 80 79 79
106 104 97 92 92 89 88 78 78 78 78 77 78 77 77 77 77 77 77 77 78 78 78 78 78 77 77 77 77 77 77 78 85 91 94 90 78 79 79 79 80 79 79
104 103 101 97 94 93 93 87 79 78 78 78 79 78 77 88 86 85 83 79 78 78 78 78 77 77 77 77 77 77 77 87 92 94 95 78 79 79 79 79 79 79 79
100 102 102 98 95 95 98 92 88 89 88 87 88 86 86 90 92 92 87 79 78 78 78 77 77 77 77 88 89 78 84 89 93 94 95 78 79 79 79 79 79 79 79
99 101 102 97 96 96 98 97 92 93 91 90 88 88 88 92 93 93 92 87 85 79 86 82 83 84 87 89 92 92 93 93 94 95 90 78 78 79 79 79 79 79 78
98 98 100 98 95 94 99 99 97 95 94 93 91 89 89 89 91 91 92 93 88 90 87 89 91 89 89 88 90 90 92 92 93 94 90 78 77 78 79 79 79 79 78
94 97 99 97 92 91 90 97 97 95 96 95 94 91 91 91 89 92 91 94 94 94 93 91 91 90 90 89 89 89 90 89 90 90 91 78 77 77 78 78 79 79 79
91 92 95 95 91 89 86 87 91 93 95 96 96 94 90 91 89 92 90 91 92 94 95 94 92 90 89 89 89 88 88 88 88 88 90 88 76 76 77 78 78 79 80
90 86 87 92 90 86 87 87 88 92 93 95 95 93 91 88 89 88 90 90 91 92 91 90 90 89 87 88 87 88 88 88 87 86 87 88 86 75 76 77 77 78 79
86 84 81 90 91 87 84 84 86 90 90 92 93 93 90 88 88 87 90 89 92 90 91 90 89 88 87 87 86 88 89 89 88 86 87 87 88 90 78 76 77 77 78
83 83 82 79 83 85 85 87 87 86 88 92 92 92 87 88 87 86 88 90 88 91 89 90 88 85 84 80 84 86 87 87 87 87 86 85 86 87 89 77 76 76 77
83 81 80 80 75 80 84 83 86 86 88 90 90 89 88 86 84 81 88 88 88 88 88 89 82 86 86 84 86 87 87 86 86 85 85 86 87 87 87 79 82 83 75
82 81 79 79 76 76 78 82 81 81 86 85 90 89 90 87 85 83 86 87 86 85 81 84 84 81 84 85 84 85 85 84 80 83 86 84 85 84 84 82 76 87 81
79 79 78 78 77 76 77 77 80 82 86 86 85 86 89 89 88 86 81 86 84 86 81 83 80 83 85 88 83 83 77 83 82 80 83 83 85 82 81 80 83 80 76
80 78 78 77 78 77 77 77 77 78 80 83 84 85 86 86 86 83 81 80 85 85 88 81 81 79 87 87 84 80 77 76 83 80 80 85 82 81 84 79 79 81 81
78 81 79 77 76 76 78 76 76 77 77 80 82 81 84 86 85 85 84 81 83 88 84 83 84 84 82 85 86 82 81 81 76 78 81 81 84 83 84 85 80 81 82
77 78 79 78 77 77 75 74 76 78 83 83 83 78 80 86 83 83 85 82 83 83 80 84 85 79 87 84 87 84 79 80 79 77 72 74 81 84 85 83 85 78 78
79 78 77 75 77 77 77 77 75 74 76 77 79 79 83 83 81 79 83 83 83 80 81 86 85 79 81 84 85 85 83 80 78 76 74 78 79 82 81 81 76 81 85
MSLP
1002.88 1004.95 1006.27 1006.84 1007.50 1007.98 1008.34 1008.83 1009.32 1009.73 1010.20 1010.68 1011.02 1011.28 1011.58 1011.91 1012.12 1012.35 1012.62 1012.78 1013.06 1013.26 1013.43 1013.65 1013.79 1013.81 1014.00 1014.10 1014.20 1014.25 1014.19 1014.17 1014.31 1014.34 1014.35 1014.38 1014.47 1014.43 1014.33 1014.39 1014.27 1013.89 1014.40
1002.93 1005.12 1006.32 1006.97 1007.60 1008.22 1008.49 1008.90 1009.38 1009.88 1010.26 1010.66 1011.08 1011.41 1011.80 1012.15 1012.47 1012.56 1012.75 1013.06 1013.28 1013.51 1013.75 1013.99 1014.15 1014.27 1014.37 1014.34 1014.45 1014.56 1014.53 1014.52 1014.38 1014.31 1014.22 1014.25 1014.34 1014.54 1014.52 1014.41 1014.49 1014.44 1014.55
1003.21 1005.27 1006.49 1007.02 1007.61 1008.34 1008.81 1009.09 1009.52 1010.00 1010.39 1010.74 1011.08 1011.59 1011.98 1012.26 1012.54 1012.79 1013.03 1013.26 1013.55 1013.75 1013.95 1014.07 1014.14 1014.29 1014.45 1014.54 1014.55 1014.66 1014.66 1014.50 1014.49 1014.21 1013.96 1013.43 1013.78 1014.62 1014.59 1014.60 1014.75 1014.83 1014.80
1003.62 1005.28 1006.17 1007.05 1007.62 1008.16 1008.86 1009.31 1009.55 1009.95 1010.43 1010.94 1011.32 1011.61 1011.98 1012.38 1012.68 1012.98 1013.24 1013.50 1013.70 1013.88 1014.13 1014.26 1014.32 1014.38 1014.40 1014.59 1014.73 1014.74 1014.62 1014.67 1014.54 1014.12 1013.58 1012.89 1013.08 1014.50 1014.63 1014.61 1014.73 1015.01 1015.03
1003.80 1005.21 1005.88 1006.99 1007.34 1008.13 1008.92 1009.31 1009.67 1009.94 1010.35 1010.80 1011.31 1011.76 1012.10 1012.47 1012.86 1013.09 1013.38 1013.51 1013.71 1013.88 1014.01 1014.23 1014.45 1014.45 1014.43 1014.50 1014.64 1014.62 1014.84 1014.74 1014.60 1014.33 1013.01 1012.82 1012.89 1014.25 1014.60 1014.61 1014.70 1015.06 1015.16
1003.49 1004.78 1006.17 1007.25 1007.34 1008.06 1008.96 1009.58 1009.93 1010.08 1010.43 1010.96 1011.31 1011.71 1012.10 1012.50 1012.85 1013.22 1013.45 1013.77 1014.01 1014.12 1014.22 1014.27 1014.57 1014.75 1014.76 1014.75 1014.89 1015.03 1014.97 1015.04 1014.57 1013.42 1013.17 1013.46 1013.40 1014.34 1014.62 1014.69 1014.81 1015.00 1015.27
1003.07 1004.23 1006.24 1007.47 1007.71 1007.89 1008.82 1009.61 1010.06 1010.46 1010.73 1011.12 1011.43 1011.86 1012.23 1012.61 1012.88 1013.34 1013.71 1013.87 1014.10 1014.39 1014.56 1014.53 1014.65 1014.93 1015.04 1015.13 1015.26 1015.16 1014.97 1014.84 1014.39 1012.83 1013.02 1013.42 1013.63 1014.31 1014.65 1014.76 1014.88 1015.06 1015.26
1002.80 1003.99 1005.71 1007.50 1008.27 1008.33 1008.73 1009.59 1010.13 1010.68 1011.06 1011.34 1011.80 1012.17 1012.50 1012.80 1013.20 1013.41 1013.77 1013.95 1014.07 1014.38 1014.70 1014.70 1014.76 1015.08 1015.41 1015.45 1015.40 1015.41 1015.13 1014.98 1014.02 1013.15 1013.05 1013.00 1014.11 1014.48 1014.77 1014.82 1014.98 1015.04 1015.21
1002.74 1003.90 1005.59 1006.82 1008.03 1008.76 1009.07 1009.64 1010.19 1010.65 1011.20 1011.69 1011.97 1012.33 1012.53 1012.91 1013.34 1013.64 1013.82 1014.08 1014.23 1014.45 1014.61 1014.86 1014.95 1014.92 1015.31 1015.60 1015.63 1015.60 1015.50 1015.17 1014.67 1013.05 1013.00 1012.91 1013.93 1014.37 1014.67 1014.83 1014.94 1015.04 1015.12
1002.81 1003.70 1005.14 1006.69 1007.45 1008.01 1008.79 1009.70 1010.20 1010.72 1011.21 1011.77 1012.16 1012.57 1012.74 1013.00 1013.44 1013.78 1013.99 1014.29 1014.38 1014.55 1014.73 1014.88 1015.12 1015.16 1015.16 1015.22 1015.31 1015.61 1015.52 1015.34 1014.49 1013.37 1012.72 1013.07 1013.98 1014.40 1014.66 1014.73 1014.85 1014.94 1015.00
1002.79 1003.62 1004.58 1005.98 1007.01 1007.47 1007.85 1009.01 1010.12 1010.69 1011.32 1011.85 1012.19 1012.54 1012.88 1012.61 1012.91 1013.34 1013.56 1013.81 1014.21 1014.44 1014.58 1014.82 1015.00 1015.35 1015.23 1015.03 1014.94 1015.23 1015.39 1014.52 1013.32 1012.48 1012.31 1013.45 1013.70 1014.15 1014.51 1014.55 1014.67 1014.78 1014.90
1003.04 1003.51 1004.07 1005.40 1006.30 1007.02 1007.13 1008.14 1009.33 1009.94 1010.57 1011.17 1011.54 1011.86 1012.21 1012.04 1012.00 1012.37 1012.76 1013.63 1014.13 1014.35 1014.46 1014.61 1014.68 1015.00 1015.05 1014.09 1013.51 1014.38 1014.39 1013.85 1012.95 1012.20 1012.06 1013.07 1013.49 1013.99 1014.20 1014.40 1014.49 1014.60 1014.71
1003.18 1003.65 1004.10 1005.18 1006.03 1006.71 1006.71 1007.33 1008.51 1008.90 1009.72 1010.38 1010.88 1011.27 1011.52 1011.29 1011.40 1011.86 1012.14 1013.08 1013.54 1014.11 1013.85 1014.03 1014.22 1014.41 1013.99 1013.40 1012.76 1012.48 1012.26 1012.28 1012.16 1011.89 1012.07 1012.86 1013.33 1013.89 1014.20 1014.30 1014.39 1014.43 1014.49
1003.24 1003.65 1004.21 1004.98 1006.10 1006.64 1006.67 1007.04 1007.51 1008.20 1008.63 1009.35 1010.00 1010.68 1010.86 1011.23 1010.98 1011.24 1011.46 1011.55 1012.38 1012.44 1012.90 1012.75 1012.45 1012.65 1012.74 1012.85 1012.65 1012.57 1012.14 1012.13 1012.04 1011.86 1012.06 1012.94 1013.04 1013.59 1013.92 1014.02 1014.13 1014.26 1014.17
1003.94 1003.67 1004.21 1005.21 1006.32 1007.09 1007.18 1006.80 1007.22 1007.59 1008.12 1008.49 1009.08 1009.86 1010.48 1010.58 1010.94 1011.02 1011.21 1011.11 1011.06 1011.25 1011.62 1012.08 1011.89 1011.74 1011.87 1012.18 1012.35 1012.38 1012.22 1012.20 1012.10 1012.09 1012.14 1012.74 1012.88 1013.07 1013.51 1013.53 1013.63 1013.64 1013.83
1004.87 1004.69 1004.77 1005.19 1006.33 1007.33 1007.87 1007.71 1007.57 1007.69 1007.47 1008.14 1008.40 1008.93 1010.01 1010.32 1010.33 1010.68 1011.24 1011.27 1011.13 1011.00 1010.93 1011.19 1011.16 1011.38 1011.73 1011.94 1011.72 1011.97 1011.94 1012.01 1012.01 1011.97 1011.97 1011.92 1012.34 1012.55 1012.99 1013.15 1013.20 1013.23 1013.28
1005.69 1005.97 1005.52 1005.48 1005.94 1006.95 1007.54 1008.02 1008.32 1007.98 1007.92 1007.89 1008.15 1008.66 1009.31 1010.16 1010.13 1010.49 1010.64 1010.88 1010.84 1010.83 1010.85 1010.97 1011.22 1011.32 1011.48 1011.65 1011.49 1011.65 1011.41 1011.50 1011.73 1011.79 1011.79 1011.80 1011.51 1012.07 1012.18 1012.42 1012.79 1012.87 1012.82
1006.22 1006.44 1006.46 1005.19 1005.89 1006.38 1007.26 1007.87 1008.20 1008.15 1008.06 1008.18 1008.15 1008.45 1009.04 1009.61 1010.02 1010.31 1010.13 1010.15 1010.21 1010.44 1010.53 1010.62 1010.84 1010.81 1010.38 1010.44 1011.03 1010.82 1010.60 1010.81 1011.06 1011.18 1011.41 1011.38 1011.14 1010.96 1011.66 1011.86 1011.94 1012.29 1012.39
1006.43 1006.42 1006.47 1006.23 1005.23 1006.38 1007.00 1007.49 1007.86 1007.81 1007.97 1007.61 1007.99 1008.06 1008.86 1009.45 1009.56 1009.84 1009.96 1009.81 1009.85 1009.98 1010.09 1009.97 1009.84 1009.59 1009.83 1009.20 1009.58 1009.98 1009.88 1010.27 1010.51 1010.59 1010.89 1010.95 1011.00 1010.89 1010.50 1011.06 1011.66 1011.89 1011.93
1006.19 1006.43 1006.12 1006.19 1006.36 1006.01 1006.85 1007.50 1007.69 1007.62 1007.62 1007.41 1007.36 1007.61 1008.30 1008.90 1009.13 1009.67 1009.36 1009.29 1009.51 1009.63 1009.36 1009.07 1009.54 1009.47 1009.34 1008.91 1009.20 1009.56 1009.50 1009.80 1010.14 1010.28 1010.42 1010.35 1010.32 1010.38 1010.42 1010.96 1011.22 1011.32 1011.56
1005.88 1006.02 1006.44 1006.48 1007.02 1007.00 1007.21 1007.41 1007.20 1006.28 1006.98 1006.80 1006.91 1006.74 1007.09 1007.82 1008.70 1008.99 1009.19 1008.78 1008.95 1009.10 1009.15 1009.22 1009.00 1009.25 1009.46 1008.60 1008.82 1009.19 1009.50 1009.39 1009.67 1009.80 1010.02 1010.02 1009.65 1009.58 1009.58 1010.07 1010.22 1010.17 1010.90
1005.19 1006.03 1006.50 1006.98 1007.42 1007.45 1007.10 1007.19 1007.51 1006.35 1006.16 1005.91 1005.68 1006.17 1006.33 1006.94 1007.53 1008.37 1008.38 1008.00 1007.97 1008.25 1008.76 1008.72 1008.55 1008.22 1008.27 1007.98 1008.30 1008.57 1008.85 1008.42 1008.81 1009.20 1009.69 1009.54 1009.19 1009.37 1009.59 1009.62 1009.66 1009.95 1010.70
1005.15 1005.76 1006.25 1006.79 1006.89 1006.92 1006.38 1006.62 1006.48 1006.28 1006.17 1005.91 1005.72 1005.46 1004.56 1006.32 1006.76 1007.44 1008.02 1008.18 1007.61 1007.75 1007.13 1007.84 1008.09 1007.82 1006.98 1007.41 1007.92 1008.35 1008.38 1008.07 1007.55 1008.19 1008.96 1008.86 1008.81 1009.00 1009.18 1009.46 1009.40 1009.55 1009.90
1005.20 1005.75 1006.19 1006.48 1006.33 1006.42 1006.47 1006.07 1005.99 1006.10 1005.75 1005.61 1005.75 1004.77 1004.67 1005.00 1005.77 1007.02 1007.45 1007.61 1007.23 1006.95 1006.51 1006.72 1007.20 1007.08 1007.38 1007.19 1007.22 1008.17 1008.29 1008.40 1008.26 1007.86 1008.17 1008.40 1008.81 1008.99 1008.89 1009.29 1009.42 1009.45 1009.68
1005.40 1005.84 1006.04 1006.36 1006.30 1006.54 1006.03 1005.82 1006.32 1005.47 1005.14 1004.73 1004.67 1003.91 1002.92 1003.56 1005.21 1006.28 1006.69 1006.97 1006.74 1006.64 1006.33 1005.94 1006.09 1006.88 1006.71 1007.38 1006.85 1007.28 1008.22 1008.32 1008.58 1008.47 1008.13 1007.89 1007.94 1008.25 1008.62 1008.75 1009.04 1009.29 1009.25
1005.25 1005.58 1005.88 1006.14 1005.95 1006.11 1005.99 1005.83 1005.78 1005.26 1005.26 1004.49 1003.56 1002.86 1002.95 1003.34 1004.33 1004.19 1006.16 1006.59 1005.03 1006.21 1005.77 1005.52 1005.64 1005.46 1005.14 1006.47 1007.14 1006.92 1007.20 1007.40 1007.49 1007.93 1007.81 1007.35 1007.24 1007.22 1007.88 1008.11 1008.62 1008.93 1008.79
Wind_Speed
14 22 19 17 15 13 15 16 15 15 14 13 13 13 12 11 12 13 13 13 11 10 9 8 9 9 8 8 8 8 8 8 8 8 8 8 7 7 6 6 5 8 9
18 22 19 18 16 13 14 15 15 15 14 14 14 13 12 12 12 13 12 12 11 10 9 8 7 7 7 7 7 7 7 7 6 5 7 10 9 5 4 6 9 9 8
18 20 20 18 17 14 12 15 15 14 14 14 15 13 13 13 12 12 12 11 10 10 9 8 8 7 7 7 7 6 6 5 3 6 10 9 11 5 4 4 6 5 5
18 19 20 18 17 16 13 12 15 15 15 14 14 14 14 13 12 12 12 11 10 9 8 8 8 8 8 7 6 5 5 4 5 9 10 5 11 8 4 5 4 3 3
15 18 19 19 19 17 13 13 14 15 15 15 15 14 14 13 12 12 11 11 11 10 10 9 8 8 7 7 6 6 4 4 7 10 5 4 1 10 6 4 5 4 2
15 18 21 18 19 18 14 12 12 14 15 15 15 15 14 13 12 11 11 9 8 9 9 9 8 6 6 6 5 4 3 5 8 12 0 6 3 11 7 4 4 3 2
15 17 20 18 17 20 16 13 11 11 12 13 14 14 13 12 12 10 9 9 8 7 8 8 8 6 5 5 5 4 5 7 11 11 1 3 11 10 7 5 3 1 1
15 17 19 17 13 17 18 14 11 9 9 10 10 11 11 11 10 10 9 9 8 7 6 7 7 6 5 6 5 5 6 8 10 8 5 4 11 8 6 5 4 3 2
15 16 16 20 16 13 14 14 11 10 8 7 8 9 10 10 9 8 8 8 7 7 6 6 7 7 6 6 6 7 7 9 11 9 6 6 13 10 7 6 5 4 3
14 16 16 17 18 18 15 12 12 10 9 7 7 7 8 9 8 7 7 7 7 6 6 6 7 7 7 7 8 8 9 11 11 13 6 6 11 7 8 8 8 6 6
12 14 15 18 17 17 17 15 12 12 10 8 8 8 8 9 11 12 11 11 10 8 7 7 7 7 7 9 10 10 10 9 12 8 6 12 11 6 7 11 10 9 8
12 14 14 16 17 17 14 15 15 13 11 11 12 12 10 11 9 11 11 12 11 9 8 8 8 8 9 9 9 14 8 11 11 7 6 12 11 7 7 10 11 10 10
11 11 13 12 12 15 14 12 9 9 9 10 14 11 11 9 8 8 5 7 8 10 8 11 10 8 11 9 9 8 9 9 7 7 2 13 11 8 9 8 10 11 11
9 15 12 13 9 11 10 11 11 10 10 9 12 12 8 8 7 5 7 9 8 8 9 8 7 9 11 11 11 11 10 8 7 6 1 12 12 10 10 10 11 12 12
4 5 14 11 10 7 9 8 9 10 11 12 11 12 10 9 7 7 6 7 6 7 8 7 8 7 9 10 9 11 11 10 10 6 7 12 11 11 12 12 13 13 12
0 2 4 11 11 11 10 10 5 5 9 10 11 11 13 9 7 8 7 7 7 7 6 7 8 8 7 8 8 10 10 10 10 8 7 7 15 14 14 15 14 14 12
2 5 3 8 11 13 13 11 9 8 9 9 10 8 12 12 8 9 9 8 8 7 6 7 7 6 6 8 8 9 8 9 9 10 8 9 8 15 16 17 16 15 13
3 3 7 4 9 9 10 8 9 10 8 9 8 9 10 11 11 10 9 10 9 7 9 9 9 9 9 7 7 8 6 7 9 8 10 8 9 8 14 17 17 16 15
3 4 5 4 6 2 8 10 10 9 10 10 10 9 8 13 14 11 10 9 9 9 8 9 10 9 7 6 7 6 6 7 7 8 9 8 9 10 5 15 16 14 15
4 5 8 7 6 5 3 6 8 8 9 8 10 9 14 11 12 11 12 10 10 10 10 11 8 10 8 5 6 7 5 5 6 7 9 8 10 11 10 8 9 11 13
4 6 6 6 6 3 3 7 8 8 10 8 10 11 12 13 15 14 12 11 12 12 11 10 10 9 9 6 5 7 8 7 8 8 7 8 10 9 7 5 1 7 7
2 4 3 0 3 5 3 3 8 4 6 8 7 10 11 11 12 13 13 12 14 12 13 12 11 10 10 6 5 5 7 6 7 9 8 9 10 3 5 7 7 6 7
4 1 1 3 5 5 3 6 5 4 6 6 7 7 9 14 12 15 14 13 13 14 12 13 12 12 9 8 9 5 4 6 4 8 12 9 5 4 6 4 7 5 5
2 1 4 3 3 7 5 5 6 7 8 8 9 5 9 11 15 16 17 16 16 12 14 11 11 10 8 9 8 8 9 6 4 5 4 6 7 5 6 7 3 4 6
3 4 4 4 5 6 5 6 7 9 9 7 7 7 6 7 13 14 16 17 15 13 12 12 9 7 6 9 8 8 7 9 10 8 9 5 7 8 8 8 7 4 6
5 5 3 4 4 6 7 8 9 11 11 10 10 6 6 7 8 9 19 19 17 15 13 12 10 12 11 9 9 6 9 8 8 7 8 11 8 8 7 4 5 5 7
Wind_Direction
134 145 150 145 146 152 152 153 153 151 147 145 143 141 140 139 134 131 129 129 131 135 132 129 123 116 108 100 97 100 99 102 95 95 100 101 89 84 78 45 352 86 91
135 153 151 148 147 156 156 157 155 151 148 150 150 148 146 140 142 140 139 139 140 139 134 129 117 111 112 114 110 108 108 105 109 138 150 135 112 101 79 48 31 80 89
138 157 164 151 147 153 162 157 153 151 153 154 152 150 150 149 149 142 142 145 147 141 141 138 134 131 129 124 124 125 120 124 152 214 213 220 98 103 91 74 60 75 90
134 157 171 157 152 151 161 161 155 154 154 155 156 157 154 154 151 148 149 149 151 148 146 148 146 143 139 137 133 133 139 147 217 243 245 85 109 120 108 122 111 108 127
147 162 167 164 153 151 160 162 162 157 158 160 161 159 159 155 153 154 155 157 160 160 159 157 157 155 151 149 151 156 163 192 237 254 239 95 319 127 128 136 170 168 100
169 166 148 168 155 150 157 164 166 162 161 164 163 165 163 160 161 159 158 158 163 168 168 162 165 171 168 161 168 175 179 254 265 241 11 120 299 124 134 121 82 90 112
180 170 154 169 165 152 153 164 164 172 167 168 167 167 164 165 159 160 160 161 167 178 182 173 172 180 185 185 195 198 209 250 271 305 174 284 104 130 146 139 123 143 188
180 170 155 165 179 159 153 160 162 168 172 170 170 165 163 161 162 161 164 169 174 182 196 189 178 189 202 209 218 231 242 265 263 276 284 263 126 138 167 164 169 187 216
180 174 153 175 181 169 155 154 159 159 161 172 162 161 160 157 161 168 171 177 178 192 195 203 200 194 204 222 238 252 265 273 287 286 275 235 135 158 185 190 196 202 205
182 176 156 177 184 185 178 159 160 159 156 159 154 157 157 145 159 180 173 185 186 197 208 210 221 216 212 221 235 248 263 274 265 277 228 132 134 159 204 207 211 210 213
181 181 168 174 184 192 185 175 166 166 163 163 166 168 166 203 186 184 200 170 186 205 206 213 220 233 232 235 232 237 252 262 264 242 269 130 135 163 214 215 217 218 222
208 192 178 181 183 194 191 176 193 194 200 202 204 196 212 213 206 207 190 168 189 201 212 217 219 231 238 257 218 208 234 257 270 268 271 138 139 174 218 221 222 224 228
219 200 194 176 179 200 201 180 186 196 195 200 210 210 200 209 215 195 180 181 206 199 222 202 210 227 247 250 266 207 230 233 254 276 107 143 149 181 225 228 227 227 231
287 192 198 172 197 200 211 192 185 196 190 197 200 200 218 214 206 229 212 201 186 190 212 235 217 213 230 243 259 278 280 272 278 288 178 154 159 185 226 233 237 236 229
254 289 193 198 190 229 250 239 209 195 198 201 199 192 211 211 221 201 232 236 205 207 200 224 233 238 234 234 253 262 263 272 274 272 290 159 173 190 220 231 236 239 230
236 97 261 196 178 201 233 265 252 232 209 207 205 199 196 217 202 209 208 214 240 228 231 229 225 236 225 239 244 249 260 272 269 264 261 232 190 192 210 227 233 240 234
291 289 321 201 182 190 208 226 245 226 245 213 218 199 191 205 228 206 207 212 221 226 232 242 258 232 243 245 245 257 263 253 254 261 252 259 219 204 205 212 225 237 242
21 28 272 156 169 181 199 220 226 222 219 232 233 215 211 194 224 197 216 205 218 218 217 224 223 228 212 207 246 249 247 243 251 243 250 253 258 247 206 215 209 220 236
41 17 355 314 88 152 196 225 225 234 218 225 217 221 206 218 209 221 223 212 210 214 223 223 223 222 220 196 221 242 228 248 261 250 247 244 245 273 257 198 205 215 230
103 39 12 18 38 11 271 207 224 219 230 216 223 208 206 213 217 209 218 220 202 222 220 224 222 228 245 184 229 255 241 242 251 244 250 235 238 228 235 165 190 211 218
110 94 32 3 340 116 247 232 216 202 216 206 226 226 214 197 210 207 223 211 206 223 229 221 217 232 230 192 231 254 258 215 219 247 252 242 233 219 221 211 158 272 201
80 97 122 190 295 286 181 219 265 249 210 198 197 214 211 227 218 226 221 225 209 214 221 223 220 219 218 196 220 253 269 255 209 212 241 249 241 227 185 210 242 204 180
181 70 326 298 299 287 317 267 219 251 271 268 228 219 173 213 217 225 224 236 225 223 209 212 218 219 221 193 202 215 249 240 278 177 208 238 256 210 260 192 181 207 236
221 202 275 291 305 296 305 297 280 265 253 231 242 226 184 193 209 223 233 227 238 224 226 197 214 226 229 244 188 205 249 288 291 260 191 192 235 248 252 276 148 211 244
191 223 232 259 267 252 277 298 277 272 265 256 247 251 170 176 200 218 235 233 237 234 224 241 191 180 225 254 237 191 226 244 244 266 280 222 196 222 226 198 245 212 192
205 210 207 260 261 278 267 256 270 285 288 294 307 329 269 236 206 195 239 240 222 226 229 201 211 185 191 233 245 228 226 217 224 227 236 253 224 214 203 195 149 234 245